This demonstration page uses our WeatherBlox Daily Observations layout. Learn more.

Left ArrowRight Arrow

Hourly Observations for January 15, 2020

Temp ( °F °C ) Dew Point ( °F °C ) Humidity (%) Winds ( mph kmh ) Pressure ( in mb ) Visibility ( mi km ) Precip ( " mm )
12:08 am 00:08 Mostly Cloudy with Mist and Fog 30 -1.1 29 -1.7 96 96 Calm 30.27 1025 1 2 0.00 0.00
12:18 am 00:18 Mostly Cloudy with Freezing Fog 30 -1.1 28 -2.2 92 92 Calm 30.27 1025 0 0 0.00 0.00
12:53 am 00:53 Mostly Cloudy with Freezing Fog 31 -0.6 29 -1.7 92 92 Calm 30.24 1024 N/A 0.00 0.00
1:53 am 01:53 Mostly Cloudy with Freezing Fog 31 -0.6 30 -1.1 96 96 Calm 30.21 1023 0 0 0.00 0.00
2:53 am 02:53 Mostly Cloudy with Freezing Fog 31 -0.6 29 -1.7 92 92 Calm 30.22 1023 0 0 0.00 0.00
3:53 am 03:53 Mostly Cloudy with Freezing Fog 31 -0.6 31 -0.6 100 100 Calm 30.21 1023 0 0 0.00 0.00
4:53 am 04:53 Mostly Cloudy with Fog 32 0 31 -0.6 96 96 Calm 30.19 1023 0 0 0.00 0.00
5:53 am 05:53 Mostly Cloudy with Fog 32 0 31 -0.6 96 96 E 3 6 30.18 1022 0 0 0.00 0.00
6:53 am 06:53 Mostly Cloudy with Fog 32 0 30 -1.1 92 92 ENE 3 6 30.18 1022 0 0 0.00 0.00
7:53 am 07:53 Mostly Cloudy with Fog 32 0 31 -0.6 96 96 NNE 3 6 30.17 1022 0 0 0.00 0.00
8:36 am 08:36 Cloudy with Mist and Fog 32 0 32 0 100 100 Calm 30.18 1022 2 3 0.00 0.00
8:43 am 08:43 Cloudy with Mist and Fog 33 0.6 32 0 96 96 E 5 7 30.17 1022 3 4 0.00 0.00
8:53 am 08:53 Cloudy with Mist and Fog 33 0.6 33 0.6 100 100 Calm 30.16 1022 2 3 0.00 0.00
9:00 am 09:00 Cloudy with Mist and Fog 33 0.6 33 0.6 100 100 Calm 30.17 1022 1 1 0.00 0.00
9:23 am 09:23 Cloudy with Mist and Fog 35 1.7 34 1.1 96 96 Calm 30.16 1021 2 2 0.00 0.00
9:27 am 09:27 Cloudy with Mist and Fog 36 2.2 34 1.1 93 93 E 5 7 30.15 1021 2 3 0.00 0.00
9:53 am 09:53 Cloudy with Mist and Fog 38 3.3 37 2.8 97 97 VRB 5 7 30.13 1020 3 5 0.00 0.00
10:15 am 10:15 Cloudy with Mist and Fog 39 3.9 37 2.8 93 93 ESE 3 6 30.14 1021 5 8 0.00 0.00
10:25 am 10:25 Cloudy with Mist and Fog 39 3.9 38 3.3 96 96 Calm 30.13 1020 5 8 0.00 0.00
10:53 am 10:53 Cloudy with Mist and Fog 41 5 39 3.9 93 93 VRB 3 6 30.12 1020 6 10 0.00 0.00
11:53 am 11:53 Cloudy with Mist and Fog 44 6.7 41 5 89 89 Calm 30.09 1019 6 10 0.00 0.00
12:53 pm 12:53 Cloudy 48 8.9 44 6.7 86 86 VRB 5 7 30.04 1017 10 16 0.00 0.00
1:53 pm 13:53 Cloudy 50 10 47 8.3 89 89 Calm 30.01 1016 7 11 0.00 0.00
2:53 pm 14:53 Cloudy 52 11.1 49 9.4 89 89 SSW 5 7 29.99 1016 8 13 0.00 0.00
3:15 pm 15:15 Cloudy 52 11.1 49 9.4 89 89 Calm 29.99 1015 7 11 0.00 0.00
3:53 pm 15:53 Cloudy with Mist and Fog 53 11.7 51 10.6 93 93 VRB 3 6 29.99 1016 6 10 0.00 0.00
4:22 pm 16:22 Cloudy with Mist and Fog 53 11.7 50 10 89 89 Calm 29.98 1015 6 10 0.00 0.00
4:53 pm 16:53 Cloudy with Mist and Fog 52 11.1 49 9.4 89 89 W 6 9 30.00 1016 4 6 0.00 0.00
5:24 pm 17:24 Cloudy with Mist and Fog 51 10.6 50 10 96 96 W 6 9 30.02 1016 4 6 0.00 0.00
5:45 pm 17:45 Cloudy with Mist and Fog 52 11.1 50 10 93 93 W 8 13 30.02 1016 6 10 0.00 0.00
5:53 pm 17:53 Cloudy 52 11.1 50 10 93 93 W 7 11 30.03 1017 9 14 0.00 0.00
6:53 pm 18:53 Cloudy 52 11.1 45 7.2 77 77 W 9 15 30.07 1018 10 16 0.00 0.00
7:53 pm 19:53 Cloudy 51 10.6 44 6.7 77 77 W 10 17 30.09 1019 10 16 0.00 0.00
8:41 pm 20:41 Cloudy 51 10.6 44 6.7 77 77 W 8 13 30.11 1020 10 16 0.00 0.00
8:53 pm 20:53 Cloudy 51 10.6 44 6.7 77 77 WNW 9 15 30.12 1020 10 16 0.00 0.00
9:16 pm 21:16 Partly Cloudy 50 10 43 6.1 77 77 W 12 19 30.12 1020 10 16 0.00 0.00
9:53 pm 21:53 Partly Cloudy 48 8.9 42 5.6 80 80 W 8 13 30.14 1021 10 16 0.00 0.00
10:53 pm 22:53 Partly Cloudy 47 8.3 41 5 80 80 WNW 13 20 30.18 1022 10 16 0.00 0.00
11:16 pm 23:16 Mostly Cloudy 46 7.8 40 4.4 79 79 W 12 19 30.19 1022 10 16 0.00 0.00
11:53 pm 23:53 Cloudy 46 7.8 39 3.9 77 77 WNW 13 20 30.19 1023 10 16 0.00 0.00

Powered by AerisWeather